Weather History for KART - May, 2013

Change the Weather History Date:

Sunday, May 19, 2013

  Actual Average Record
Temperature  
Mean Temperature 60 °F 56 °F  
Max Temperature 69 °F 67 °F 86 °F (1996)
Min Temperature 50 °F 44 °F 31 °F (2007)
Degree Days  
Heating Degree Days 5 10  
Month to date heating degree days 169 236  
Since 1 July heating degree days 6656 7379  
Cooling Degree Days 0 0  
Month to date cooling degree days 0 0  
Year to date cooling degree days 0 1  
Growing Degree Days 10 (Base 50)    
Moisture  
Dew Point 53 °F    
Average Humidity 72    
Maximum Humidity 83    
Minimum Humidity 61    
Precipitation  
Precipitation 0.00 in 0.10 in 1.64 in (1976)
Month to date precipitation 0.54 1.81  
Year to date precipitation 9.53 11.89  
Sea Level Pressure  
Sea Level Pressure 30.12 in    
Wind  
Wind Speed 6 mph (SSE)    
Max Wind Speed 13 mph    
Max Gust Speed 23 mph    
Visibility 10 miles    
Events      
T = Trace of Precipitation, MM = Missing Value Source: NWS Daily Summary

Daily Weather History Graph

Daily Weather History Graph

Search for Another Location

Airport or City:

Trip Planner

Search our weather history database for the weather conditions in past years. The results will help you decide how hot, cold, wet, or windy it might be!

Date:

Astronomy

May. 19, 2013 Rise Set
Actual Time 5:33 AM EDT 8:28 PM EDT
Civil Twilight 4:59 AM EDT 9:02 PM EDT
Nautical Twilight 4:16 AM EDT 9:45 PM EDT
Astronomical Twilight 3:26 AM EDT 10:36 PM EDT
Moon 2:18 PM EDT (5/19) 2:08 AM EDT (5/19)
Length of Visible Light 16h 02m
Length of Day
14h 54m
Waxing Gibbous, 65% of the Moon is Illuminated
May 19
Waxing Gibbous
May 25
Full
May 31
Last Quarter
Jun 8
New
Jun 16
First Quarter

Hourly Weather History & Observations

Time (EDT) Temp. Dew Point Humidity Pressure Visibility Wind Dir Wind Speed Gust Speed Precip Events Conditions
12:56 AM 57.9 °F 46.0 °F 65% 30.18 in 10.0 mi South 4.6 mph - N/A   Clear
1:56 AM 57.0 °F 46.9 °F 69% 30.17 in 10.0 mi SSE 4.6 mph - N/A   Clear
2:56 AM 55.9 °F 46.9 °F 72% 30.17 in 10.0 mi Calm Calm - N/A   Clear
3:56 AM 52.0 °F 46.0 °F 80% 30.17 in 10.0 mi Calm Calm - N/A   Clear
4:56 AM 53.1 °F 46.9 °F 80% 30.17 in 10.0 mi ENE 3.5 mph - N/A   Clear
5:56 AM 51.1 °F 46.9 °F 86% 30.17 in 10.0 mi ENE 4.6 mph - N/A   Clear
6:56 AM 57.9 °F 50.0 °F 75% 30.18 in 10.0 mi Variable 3.5 mph - N/A   Clear
7:56 AM 61.0 °F 52.0 °F 72% 30.18 in 10.0 mi SSE 8.1 mph - N/A   Scattered Clouds
8:56 AM 64.0 °F 53.1 °F 67% 30.19 in 10.0 mi South 8.1 mph - N/A   Mostly Cloudy
9:56 AM 64.9 °F 53.1 °F 65% 30.18 in 10.0 mi SSE 9.2 mph - N/A   Partly Cloudy
10:56 AM 64.9 °F 54.0 °F 68% 30.18 in 10.0 mi Variable 6.9 mph - N/A   Overcast
11:05 AM 64.4 °F 53.6 °F 68% 30.18 in 10.0 mi South 8.1 mph - N/A   Overcast
11:56 AM 64.0 °F 54.0 °F 70% 30.17 in 10.0 mi SSE 9.2 mph - N/A   Overcast
12:56 PM 64.0 °F 54.0 °F 70% 30.15 in 10.0 mi Variable 4.6 mph - N/A   Overcast
1:56 PM 64.0 °F 55.0 °F 73% 30.13 in 10.0 mi SE 8.1 mph - N/A   Overcast
2:56 PM 66.0 °F 55.0 °F 68% 30.11 in 10.0 mi Variable 4.6 mph - N/A   Overcast
3:56 PM 66.0 °F 55.0 °F 68% 30.09 in 10.0 mi SSE 8.1 mph - N/A   Overcast
4:30 PM 66.2 °F 55.4 °F 68% 30.09 in 10.0 mi SSE 6.9 mph - N/A   Overcast
4:56 PM 68.0 °F 55.9 °F 65% 30.06 in 10.0 mi South 8.1 mph - N/A   Overcast
5:56 PM 69.1 °F 55.9 °F 63% 30.06 in 10.0 mi South 5.8 mph - N/A   Overcast
6:56 PM 68.0 °F 55.9 °F 65% 30.05 in 10.0 mi SSE 8.1 mph - N/A   Mostly Cloudy
7:56 PM 66.0 °F 55.9 °F 70% 30.04 in 10.0 mi SSE 6.9 mph - N/A   Mostly Cloudy
8:56 PM 64.9 °F 55.9 °F 73% 30.02 in 10.0 mi Variable 6.9 mph - N/A   Clear
9:56 PM 64.0 °F 55.9 °F 75% 30.03 in 10.0 mi South 5.8 mph - N/A   Clear
10:56 PM 63.0 °F 55.9 °F 78% 30.04 in 10.0 mi South 5.8 mph - N/A   Clear
11:56 PM 64.0 °F 55.9 °F 75% 30.01 in 10.0 mi South 12.7 mph 20.7 mph N/A   Clear